星链-4608 (STARLINK-4608 )

导读 | 星芒AI

STARLINK-4608 是 SpaceX Starlink 卫星互联网项目中的第 4608 颗卫星,属于低轨卫星群的一部分。该卫星旨在为全球用户提供高速、低延迟的互联网服务,尤其覆盖传统网络难以到达的地区。它采用先进的推进和通信技术,具备自动避撞功能,以确保在轨安全。作为 Starlink 计划的重要组成,STARLINK-4608 有助于提升全球网络连接的普及性和稳定性。

基本信息
目录编号:
53621
目录名称:
STARLINK-4608
国际标识:
2022-104AK
轨道中心:
EARTH
卫星名称:
星链-4608
卫星全名:
星链-4608 (STARLINK-4608 )
卫星状态:
在轨 (已飞行1165 天)
发射日期:
2022-08-28 UTC
国别 :
美国 (US)
星等 :
--
轨道信息
数据来源 国际轨道数据
星历时间: 2025-11-04T10:02:52+0800
23小时前
查看轨道信息
半长轴: 6917.886km
偏心率: 0.0001521
轨道倾角: 53.216°
近地点辐角 83.138°
升交点赤经 77.934°
平近点角 276.978°
近地点: 538.698km
远地点: 540.804km
周期: 95.438分钟
每日圈数: 15.088383
详细信息
固有亮度:
5
最大亮度:
2.5
卫星平台:
Starlink v1.5
覆盖范围:
全球
运营商:
太空探索技术公司
运营商所在国:
美国
制造商(研发单位):
太空探索技术公司
制造商所在国:
美国
使用方式:
暂无
卫星简介
星链(Starlink)计划是由太空探索技术公司(SpaceX)提出的一个巨型低轨卫星互联网星座项目,计划在2019年至2024年间在太空搭建由约1.2万颗卫星组成的“星链”网络,其中1584颗将部署在地球上空550千米处的近地轨道,并从2020年开始工作。该卫星仍在工作。
2D轨道图
3D轨道图
轨道高度分析图
轨道倾角分析图
轨道综合分析图
查看轨道综合分析图